Somerville, NJ

6:12 PM EDT on October 15, 2019 (GMT -0400)
Somerset

Weather History for KSMQ - September, 2019

Change the Weather History Date:

Thursday, September 19, 2019

  Actual Average Record
Temperature  
Mean Temperature 57 °F -  
Max Temperature 72 °F 75 °F 88 °F (1947)
Min Temperature 42 °F 52 °F 33 °F (1990)
Degree Days  
Heating Degree Days 8    
Growing Degree Days 7 (Base 50)    
Moisture  
Dew Point 43 °F    
Average Humidity 72    
Maximum Humidity 97    
Minimum Humidity 27    
Precipitation  
Precipitation 0.00 in - - ()
Sea Level Pressure  
Sea Level Pressure 30.31 in    
Wind  
Wind Speed 1 mph (NNW)    
Max Wind Speed 4 mph    
Max Gust Speed -    
Visibility 10 miles    
Events      
Averages and records for this station are not official NWS values.
T = Trace of Precipitation, MM = Missing Value Source: NWS Daily Summary

Daily Weather History Graph

Daily Weather History Graph

Search for Another Location

Airport or City:

Astronomy

Sep. 19, 2019 Rise Set
Actual Time 6:43 AM EDT 7:01 PM EDT
Civil Twilight 6:15 AM EDT 7:28 PM EDT
Nautical Twilight 5:43 AM EDT 8:00 PM EDT
Astronomical Twilight 5:10 AM EDT 8:33 PM EDT
Moon 10:07 PM EDT (9/19) 11:45 AM EDT (9/19)
Length of Visible Light 13h 12m
Length of Day
12h 18m
Waning Gibbous, 74% of the Moon is Illuminated
Sep 19
Waning Gibbous
Sep 21
Last Quarter
Sep 28
New
Oct 5
First Quarter
Oct 13
Full

Hourly Weather History & Observations

Time (EDT) Temp. Windchill Dew Point Humidity Pressure Visibility Wind Dir Wind Speed Gust Speed Precip Events Conditions
12:53 AM 48.9 °F - 48.0 °F 97% 30.31 in 10.0 mi Calm Calm - N/A   Clear
1:53 AM 48.0 °F - 46.0 °F 93% 30.32 in 9.0 mi Calm Calm - N/A   Clear
2:53 AM 46.0 °F - 44.1 °F 93% 30.31 in 10.0 mi Calm Calm - N/A   Clear
3:53 AM 45.0 °F - 44.1 °F 97% 30.32 in 10.0 mi Calm Calm - N/A   Clear
4:53 AM 44.1 °F - 43.0 °F 96% 30.32 in 10.0 mi Calm Calm - N/A   Clear
5:17 AM 43.0 °F 41.3 °F 42.1 °F 97% 30.32 in 2.5 mi NW 3.5 mph - N/A   Partly Cloudy
5:30 AM 43.0 °F - 42.1 °F 97% 30.31 in 10.0 mi Calm Calm - N/A   Partly Cloudy
5:53 AM 43.0 °F - 41.0 °F 93% 30.32 in 9.0 mi Calm Calm - N/A   Clear
6:53 AM 42.1 °F 40.2 °F 41.0 °F 96% 30.34 in 8.0 mi NW 3.5 mph - N/A   Clear
7:53 AM 46.0 °F - 44.1 °F 93% 30.35 in 10.0 mi North - - N/A   Clear
8:53 AM 54.0 °F - 46.0 °F 75% 30.36 in 10.0 mi North 3.5 mph - N/A   Clear
9:53 AM 60.1 °F - 45.0 °F 57% 30.37 in 10.0 mi ESE 3.5 mph - N/A   Clear
10:53 AM 63.0 °F - 42.1 °F 46% 30.37 in 10.0 mi Variable 3.5 mph - N/A   Clear
11:53 AM 66.0 °F - 39.9 °F 38% 30.35 in 10.0 mi Calm Calm - N/A   Clear
12:53 PM 66.9 °F - 37.9 °F 34% 30.33 in 10.0 mi Calm Calm - N/A   Clear
1:53 PM 69.1 °F - 39.0 °F 33% 30.31 in 10.0 mi SSE 3.5 mph - N/A   Clear
2:53 PM 71.1 °F - 39.0 °F 31% 30.30 in 10.0 mi Calm Calm - N/A   Clear
3:53 PM 70.0 °F - 39.9 °F 33% 30.29 in 10.0 mi South 3.5 mph - N/A   Clear
4:53 PM 72.0 °F - 36.0 °F 27% 30.28 in 10.0 mi Calm Calm - N/A   Clear
5:53 PM 71.1 °F - 35.1 °F 27% 30.28 in 10.0 mi North 3.5 mph - N/A   Clear
6:53 PM 59.0 °F - 46.9 °F 64% 30.29 in 10.0 mi Calm Calm - N/A   Clear
7:53 PM 53.1 °F - 46.0 °F 77% 30.28 in 10.0 mi Calm Calm - N/A   Clear
8:53 PM 50.0 °F - 48.0 °F 93% 30.28 in 10.0 mi Calm Calm - N/A   Clear
9:53 PM 48.9 °F - 46.9 °F 93% 30.27 in 10.0 mi Calm Calm - N/A   Clear
10:53 PM 46.9 °F - 44.1 °F 90% 30.28 in 10.0 mi NW 3.5 mph - N/A   Clear
11:53 PM 45.0 °F - 43.0 °F 93% 30.29 in 9.0 mi Calm Calm - N/A   Clear